Weather History for St. Joseph, MO

Change the Weather History Date:

Thursday, February 28, 2013

  Actual Average Record
Temperature  
Mean Temperature 30 °F 36 °F  
Max Temperature 32 °F 47 °F 77 °F (2006)
Min Temperature 27 °F 25 °F -7 °F (1962)
Degree Days  
Heating Degree Days 35 29  
Month to date heating degree days 943 924  
Since 1 July heating degree days 4104 4308  
Cooling Degree Days 0 0  
Month to date cooling degree days 0 0  
Year to date cooling degree days 0 0  
Moisture  
Dew Point 23 °F    
Average Humidity 77    
Maximum Humidity 81    
Minimum Humidity 72    
Precipitation  
Precipitation 0.00 in 0.04 in 1.18 in (1987)
Month to date precipitation 0.37 0.93  
Year to date precipitation 1.01 1.49  
Sea Level Pressure  
Sea Level Pressure 30.18 in    
Wind  
Wind Speed 14 mph (NNW)    
Max Wind Speed 25 mph    
Max Gust Speed 29 mph    
Visibility 10 miles    
Events      
T = Trace of Precipitation, MM = Missing Value Source: NWS Daily Summary

Daily Weather History Graph

Daily Weather History Graph

Search for Another Location

Airport:

Trip Planner

Search our weather history database for the weather conditions in past years. The results will help you decide how hot, cold, wet, or windy it might be!

Date:

Astronomy

Feb. 28, 2013 Rise Set
Actual Time 6:53 AM CST 6:10 PM CST
Civil Twilight 6:26 AM CST 6:38 PM CST
Nautical Twilight 5:55 AM CST 7:09 PM CST
Astronomical Twilight 5:24 AM CST 7:40 PM CST
Moon 9:38 PM CST (2/28) 8:04 AM CST (2/28)
Length of Visible Light 12h 11m
Length of Day
11h 17m
Waning Gibbous, 90% of the Moon is Illuminated
Feb 28
Waning Gibbous
Mar 4
Last Quarter
Mar 11
New
Mar 19
First Quarter
Mar 27
Full

Hourly Weather History & Observations

Time (CST) Temp. Windchill Dew Point Humidity Pressure Visibility Wind Dir Wind Speed Gust Speed Precip Events Conditions
1:01 AM 30.2 °F 18.5 °F 24.8 °F 80% 30.07 in 8.0 mi NNW 17.3 mph - N/A   Mostly Cloudy
1:53 AM 30.0 °F 17.2 °F 23.0 °F 75% 30.10 in 9.0 mi North 20.7 mph - N/A   Scattered Clouds
2:08 AM 30.2 °F 18.9 °F 23.0 °F 75% 30.07 in 9.0 mi North 16.1 mph - N/A   Mostly Cloudy
2:16 AM 28.4 °F 18.0 °F 21.2 °F 74% 30.07 in 9.0 mi North 12.7 mph - N/A   Scattered Clouds
2:24 AM 28.4 °F 18.0 °F 23.0 °F 80% 30.08 in 9.0 mi North 12.7 mph - N/A   Mostly Cloudy
2:33 AM 28.4 °F 17.5 °F 21.2 °F 74% 30.08 in 9.0 mi North 13.8 mph - N/A   Scattered Clouds
2:53 AM 28.0 °F 14.9 °F 21.9 °F 78% 30.10 in 9.0 mi North 19.6 mph - N/A   Partly Cloudy
3:53 AM 27.0 °F 14.7 °F 21.0 °F 78% 30.11 in 10.0 mi NNW 16.1 mph - N/A   Scattered Clouds
4:01 AM 28.4 °F 16.2 °F 21.2 °F 74% 30.09 in 10.0 mi NNW 17.3 mph 26.5 mph N/A   Mostly Cloudy
4:53 AM 28.0 °F 13.9 °F 21.0 °F 75% 30.13 in 10.0 mi NNW 23.0 mph 26.5 mph N/A   Overcast
5:53 AM 28.0 °F 15.7 °F 21.9 °F 78% 30.15 in 10.0 mi NNW 17.3 mph - N/A   Overcast
6:53 AM 28.0 °F 16.5 °F 21.9 °F 78% 30.16 in 10.0 mi NNW 15.0 mph - N/A   Overcast
7:53 AM 28.9 °F 16.9 °F 21.9 °F 75% 30.18 in 10.0 mi NNW 17.3 mph - N/A   Overcast
8:53 AM 30.0 °F 19.1 °F 23.0 °F 75% 30.19 in 10.0 mi NNW 15.0 mph - N/A   Overcast
9:53 AM 30.0 °F 18.3 °F 23.0 °F 75% 30.21 in 10.0 mi North 17.3 mph - N/A   Overcast
10:53 AM 30.9 °F 20.2 °F 23.0 °F 72% 30.22 in 10.0 mi North 15.0 mph - N/A   Overcast
11:53 AM 30.0 °F 19.1 °F 23.0 °F 75% 30.23 in 10.0 mi NNW 15.0 mph - N/A   Overcast
12:53 PM 30.9 °F 21.7 °F 24.1 °F 76% 30.22 in 10.0 mi NW 11.5 mph - N/A   Overcast
1:18 PM 30.2 °F 19.8 °F 24.8 °F 80% 30.19 in 10.0 mi NW 13.8 mph - N/A   Overcast
1:53 PM 32.0 °F 23.0 °F 24.1 °F 73% 30.21 in 10.0 mi NW 11.5 mph - N/A   Overcast
2:53 PM 30.9 °F 20.7 °F 25.0 °F 79% 30.21 in 8.0 mi NW 13.8 mph - N/A   Overcast
3:53 PM 32.0 °F 24.8 °F 24.1 °F 73% 30.21 in 9.0 mi NNW 8.1 mph - N/A   Overcast
4:53 PM 30.9 °F 22.8 °F 24.1 °F 76% 30.21 in 10.0 mi NW 9.2 mph - N/A   Overcast
5:17 PM 30.2 °F 21.9 °F 24.8 °F 80% 30.18 in 9.0 mi NW 9.2 mph - N/A   Overcast
5:53 PM 30.9 °F 24.3 °F 24.1 °F 76% 30.22 in 9.0 mi NW 6.9 mph - N/A   Overcast
6:53 PM 30.9 °F 24.3 °F 24.1 °F 76% 30.23 in 10.0 mi NNW 6.9 mph - N/A   Overcast
7:53 PM 30.0 °F 23.2 °F 24.1 °F 79% 30.23 in 10.0 mi NW 6.9 mph - N/A   Overcast
8:48 PM 30.2 °F 22.6 °F 24.8 °F 80% 30.20 in 10.0 mi NW 8.1 mph - N/A   Overcast
8:53 PM 30.0 °F 23.2 °F 24.1 °F 79% 30.23 in 10.0 mi NW 6.9 mph - N/A   Overcast
9:08 PM 30.2 °F 22.6 °F 24.8 °F 80% 30.21 in 10.0 mi NW 8.1 mph - N/A   Overcast
9:32 PM 30.2 °F 20.8 °F 24.8 °F 80% 30.21 in 10.0 mi NNW 11.5 mph - N/A   Overcast
9:53 PM 30.0 °F 20.0 °F 24.1 °F 79% 30.24 in 10.0 mi NNW 12.7 mph - N/A   Overcast
10:39 PM 28.4 °F 18.5 °F 21.2 °F 74% 30.21 in 10.0 mi NW 11.5 mph - N/A   Overcast
10:53 PM 28.9 °F 19.2 °F 21.9 °F 75% 30.23 in 10.0 mi NNW 11.5 mph - N/A   Overcast
11:32 PM 28.4 °F 19.1 °F 21.2 °F 74% 30.21 in 10.0 mi NW 10.4 mph - N/A   Overcast
11:53 PM 28.0 °F 18.1 °F 21.9 °F 78% 30.23 in 10.0 mi NNW 11.5 mph - N/A   Overcast